LEGION 2

Last updated on Thu Oct 30 2025 00:02:32 GMT+0000 (Coordinated Universal Time)

1 59626U 24081B 25302.49872946 .00007465 00000+0 37855-3 0 9996 2 59626 97.5251 17.5693 0003145 117.8480 242.3072 15.17235062 82576
UTC large
Height (km)
Speed (km/s)
/
Latitude / Longitude
Inclination (degrees)
Orbital Period (minutes)
Azimuth
Elevation
Range (km)
Doppler Factor

Next 0 passes for location: London (51.5072 / 0.1276)

Sorry there are no passes over London.